| time (UTC) | temp F | wind direction | speed MPH | gust MPH | rain 1hr in | rain 24hr in | rain mn in | humidity % | barometer mb |
| 20260507232204 | 51 | 105 | 2.0 | 3.0 | 0.00 | 0.00 | 0.00 | 77 | 1017.7 |
| 20260507231704 | 51 | 127 | 3.0 | 6.0 | 0.00 | 0.00 | 0.00 | 77 | 1017.6 |
| 20260507231204 | 51 | 123 | 2.0 | 6.0 | 0.00 | 0.00 | 0.00 | 77 | 1017.6 |
| 20260507230704 | 51 | 139 | 2.0 | 5.0 | 0.00 | 0.00 | 0.00 | 78 | 1017.6 |
| 20260507230204 | 51 | 138 | 3.0 | 7.0 | 0.00 | 0.00 | 0.00 | 77 | 1017.6 |
| 20260507225704 | 51 | 116 | 3.0 | 7.0 | 0.00 | 0.00 | 0.00 | 77 | 1017.5 |
| 20260507225204 | 52 | 131 | 3.0 | 7.0 | 0.00 | 0.00 | 0.00 | 77 | 1017.5 |
| 20260507224704 | 52 | 134 | 3.0 | 7.0 | 0.00 | 0.00 | 0.00 | 77 | 1017.5 |
| 20260507223704 | 52 | 137 | 2.0 | 3.0 | 0.00 | 0.00 | 0.00 | 76 | 1017.6 |
| 20260507223204 | 52 | 105 | 3.0 | 3.0 | 0.00 | 0.00 | 0.00 | 76 | 1017.6 |
| 20260507222205 | 52 | 106 | 2.0 | 3.0 | 0.00 | 0.00 | 0.00 | 76 | 1017.6 |
| 20260507221705 | 52 | 113 | 2.0 | 3.0 | 0.00 | 0.00 | 0.00 | 76 | 1017.5 |
| 20260507221203 | 53 | 104 | 2.0 | 3.0 | 0.00 | 0.00 | 0.00 | 76 | 1017.6 |
| 20260507220703 | 53 | 123 | 1.0 | 2.0 | 0.00 | 0.00 | 0.00 | 76 | 1017.5 |
| 20260507220204 | 53 | 99 | 1.0 | 3.0 | 0.00 | 0.00 | 0.00 | 76 | 1017.6 |
| 20260507215704 | 53 | 119 | 1.0 | 3.0 | 0.00 | 0.00 | 0.00 | 76 | 1017.5 |
| 20260507215204 | 53 | 111 | 0.0 | 2.0 | 0.00 | 0.00 | 0.00 | 76 | 1017.5 |
| 20260507214704 | 53 | 121 | 1.0 | 2.0 | 0.00 | 0.00 | 0.00 | 76 | 1017.4 |
| 20260507214203 | 53 | 117 | 1.0 | 3.0 | 0.00 | 0.00 | 0.00 | 76 | 1017.4 |
| 20260507212704 | 53 | 132 | 1.0 | 3.0 | 0.00 | 0.00 | 0.00 | 77 | 1017.4 |
| 20260507211203 | 54 | 101 | 1.0 | 2.0 | 0.00 | 0.00 | 0.00 | 79 | 1017.4 |
| 20260507210704 | 54 | 94 | 1.0 | 3.0 | 0.00 | 0.00 | 0.00 | 80 | 1017.4 |
| 20260507210204 | 54 | 118 | 1.0 | 3.0 | 0.00 | 0.00 | 0.00 | 80 | 1017.4 |
| 20260507205704 | 54 | 109 | 1.0 | 3.0 | 0.00 | 0.00 | 0.00 | 80 | 1017.3 |
| 20260507205203 | 54 | 91 | 1.0 | 2.0 | 0.00 | 0.00 | 0.00 | 80 | 1017.3 |
| 20260507204704 | 54 | 75 | 1.0 | 2.0 | 0.00 | 0.00 | 0.00 | 79 | 1017.2 |
| 20260507204204 | 54 | 53 | 1.0 | 3.0 | 0.00 | 0.00 | 0.00 | 79 | 1017.2 |
| 20260507203704 | 54 | 47 | 1.0 | 3.0 | 0.00 | 0.00 | 0.00 | 78 | 1017.2 |
| 20260507203206 | 54 | 38 | 0.0 | 3.0 | 0.00 | 0.00 | 0.00 | 78 | 1017.1 |
| 20260507202704 | 54 | 42 | 1.0 | 2.0 | 0.00 | 0.00 | 0.00 | 77 | 1017.1 |
| 20260507202204 | 55 | 36 | 2.0 | 3.0 | 0.00 | 0.00 | 0.00 | 76 | 1017.0 |
| 20260507201704 | 55 | 45 | 1.0 | 3.0 | 0.00 | 0.00 | 0.00 | 75 | 1017.0 |
| 20260507201205 | 55 | 44 | 1.0 | 3.0 | 0.00 | 0.00 | 0.00 | 74 | 1017.0 |
| 20260507200704 | 55 | 44 | 1.0 | 3.0 | 0.00 | 0.00 | 0.00 | 73 | 1016.9 |
| 20260507200202 | 55 | 40 | 1.0 | 3.0 | 0.00 | 0.00 | 0.00 | 72 | 1016.9 |
| 20260507195702 | 55 | 42 | 1.0 | 3.0 | 0.00 | 0.00 | 0.00 | 71 | 1016.9 |
| 20260507195202 | 55 | 46 | 1.0 | 3.0 | 0.00 | 0.00 | 0.00 | 70 | 1016.8 |
| 20260507194703 | 55 | 53 | 2.0 | 3.0 | 0.00 | 0.00 | 0.00 | 70 | 1016.8 |
| 20260507194202 | 55 | 31 | 0.0 | 0.0 | 0.00 | 0.00 | 0.00 | 69 | 1016.8 |
| 20260507193702 | 55 | 31 | 0.0 | 2.0 | 0.00 | 0.00 | 0.00 | 69 | 1016.8 |
| 20260507192702 | 55 | 49 | 0.0 | 0.0 | 0.00 | 0.00 | 0.00 | 68 | 1016.7 |
| 20260507192202 | 55 | 58 | 1.0 | 3.0 | 0.00 | 0.00 | 0.00 | 67 | 1016.6 |
| 20260507191703 | 55 | 54 | 2.0 | 3.0 | 0.00 | 0.00 | 0.00 | 67 | 1016.6 |
| 20260507191203 | 56 | 49 | 1.0 | 3.0 | 0.00 | 0.00 | 0.00 | 66 | 1016.5 |
| 20260507190703 | 56 | 49 | 1.0 | 3.0 | 0.00 | 0.00 | 0.00 | 66 | 1016.5 |
| 20260507190203 | 56 | 43 | 2.0 | 3.0 | 0.00 | 0.00 | 0.00 | 65 | 1016.5 |
| 20260507185702 | 56 | 49 | 1.0 | 3.0 | 0.00 | 0.00 | 0.00 | 65 | 1016.4 |
| 20260507185203 | 56 | 61 | 2.0 | 5.0 | 0.00 | 0.00 | 0.00 | 64 | 1016.3 |
| 20260507184703 | 56 | 67 | 3.0 | 6.0 | 0.00 | 0.00 | 0.00 | 64 | 1016.3 |
| 20260507184203 | 56 | 66 | 2.0 | 5.0 | 0.00 | 0.00 | 0.00 | 63 | 1016.2 |
| 20260507183702 | 56 | 50 | 2.0 | 3.0 | 0.00 | 0.00 | 0.00 | 63 | 1016.2 |
| 20260507183203 | 56 | 69 | 3.0 | 7.0 | 0.00 | 0.00 | 0.00 | 62 | 1016.2 |
| 20260507182703 | 57 | 56 | 3.0 | 6.0 | 0.00 | 0.00 | 0.00 | 61 | 1016.1 |
| 20260507182204 | 57 | 48 | 3.0 | 7.0 | 0.00 | 0.00 | 0.00 | 61 | 1016.1 |
| 20260507181703 | 57 | 60 | 3.0 | 7.0 | 0.00 | 0.00 | 0.00 | 61 | 1016.1 |
| 20260507175203 | 58 | 56 | 5.0 | 9.0 | 0.00 | 0.00 | 0.00 | 64 | 1015.9 |
| 20260507174203 | 58 | 38 | 1.0 | 3.0 | 0.00 | 0.00 | 0.00 | 63 | 1015.8 |
| 20260507173702 | 58 | 31 | 3.0 | 9.0 | 0.00 | 0.00 | 0.00 | 63 | 1015.9 |
| 20260507173204 | 58 | 41 | 2.0 | 6.0 | 0.00 | 0.00 | 0.00 | 64 | 1015.8 |
| 20260507172703 | 58 | 41 | 2.0 | 5.0 | 0.00 | 0.00 | 0.00 | 64 | 1015.7 |
| 20260507172202 | 59 | 14 | 3.0 | 3.0 | 0.00 | 0.00 | 0.00 | 65 | 1015.7 |
| 20260507171702 | 59 | 25 | 2.0 | 5.0 | 0.00 | 0.00 | 0.00 | 65 | 1015.7 |
| 20260507170203 | 59 | 25 | 3.0 | 9.0 | 0.00 | 0.00 | 0.00 | 63 | 1015.6 |
| 20260507165703 | 59 | 27 | 5.0 | 9.0 | 0.00 | 0.00 | 0.00 | 64 | 1015.6 |
| 20260507165203 | 59 | 40 | 3.0 | 9.0 | 0.00 | 0.00 | 0.00 | 64 | 1015.5 |
| 20260507164203 | 59 | 59 | 3.0 | 9.0 | 0.00 | 0.00 | 0.00 | 64 | 1015.5 |
| 20260507163703 | 59 | 27 | 3.0 | 9.0 | 0.00 | 0.00 | 0.00 | 64 | 1015.5 |
| 20260507162703 | 60 | 30 | 2.0 | 9.0 | 0.00 | 0.00 | 0.00 | 65 | 1015.4 |
| 20260507162202 | 60 | 26 | 3.0 | 6.0 | 0.00 | 0.00 | 0.00 | 65 | 1015.3 |
| 20260507161703 | 60 | 352 | 2.0 | 6.0 | 0.00 | 0.00 | 0.00 | 65 | 1015.3 |
| 20260507161203 | 60 | 344 | 3.0 | 7.0 | 0.00 | 0.00 | 0.00 | 64 | 1015.3 |
| 20260507160203 | 61 | 42 | 4.0 | 10.0 | 0.00 | 0.00 | 0.00 | 61 | 1015.3 |
| 20260507155704 | 61 | 37 | 3.0 | 7.0 | 0.00 | 0.00 | 0.00 | 61 | 1015.3 |
| 20260507155203 | 61 | 47 | 3.0 | 9.0 | 0.00 | 0.00 | 0.00 | 59 | 1015.2 |
| 20260507154703 | 61 | 46 | 6.0 | 12.0 | 0.00 | 0.00 | 0.00 | 59 | 1015.2 |
| 20260507154203 | 61 | 48 | 5.0 | 8.0 | 0.00 | 0.00 | 0.00 | 59 | 1015.2 |
| 20260507153703 | 61 | 45 | 3.0 | 8.0 | 0.00 | 0.00 | 0.00 | 57 | 1015.2 |
| 20260507153203 | 61 | 34 | 3.0 | 8.0 | 0.00 | 0.00 | 0.00 | 56 | 1015.2 |
| 20260507152703 | 61 | 357 | 3.0 | 8.0 | 0.00 | 0.00 | 0.00 | 56 | 1015.2 |
| 20260507152203 | 61 | 4 | 3.0 | 8.0 | 0.00 | 0.00 | 0.00 | 58 | 1015.2 |
| 20260507151704 | 62 | 26 | 5.0 | 12.0 | 0.00 | 0.00 | 0.00 | 57 | 1015.2 |
| 20260507151203 | 62 | 335 | 4.0 | 10.0 | 0.00 | 0.00 | 0.00 | 56 | 1015.1 |
| 20260507150204 | 63 | 345 | 5.0 | 12.0 | 0.00 | 0.00 | 0.00 | 56 | 1015.1 |
| 20260507145703 | 63 | 38 | 5.0 | 12.0 | 0.00 | 0.00 | 0.00 | 56 | 1015.2 |
| 20260507144703 | 61 | 49 | 5.0 | 12.0 | 0.00 | 0.00 | 0.00 | 58 | 1015.1 |
| 20260507144204 | 61 | 356 | 5.0 | 9.0 | 0.00 | 0.00 | 0.00 | 58 | 1015.1 |
| 20260507143703 | 62 | 348 | 2.0 | 12.0 | 0.00 | 0.00 | 0.00 | 57 | 1015.1 |
| 20260507143203 | 62 | 3 | 4.0 | 9.0 | 0.00 | 0.00 | 0.00 | 56 | 1015.1 |
| 20260507142704 | 62 | 349 | 4.0 | 9.0 | 0.00 | 0.00 | 0.00 | 56 | 1015.1 |
| 20260507142203 | 62 | 354 | 3.0 | 12.0 | 0.00 | 0.00 | 0.00 | 55 | 1015.0 |
| 20260507141703 | 62 | 18 | 4.0 | 10.0 | 0.00 | 0.00 | 0.00 | 54 | 1015.0 |
| 20260507141203 | 62 | 348 | 3.0 | 9.0 | 0.00 | 0.00 | 0.00 | 52 | 1015.0 |
| 20260507140703 | 62 | 349 | 2.0 | 6.0 | 0.00 | 0.00 | 0.00 | 52 | 1015.0 |
| 20260507135703 | 62 | 55 | 2.0 | 8.0 | 0.00 | 0.00 | 0.00 | 50 | 1015.0 |
| 20260507134704 | 62 | 67 | 5.0 | 8.0 | 0.00 | 0.00 | 0.00 | 49 | 1015.0 |
| 20260507134203 | 62 | 40 | 3.0 | 8.0 | 0.00 | 0.00 | 0.00 | 50 | 1015.0 |
| 20260507133204 | 63 | 333 | 4.0 | 7.0 | 0.00 | 0.00 | 0.00 | 47 | 1015.0 |
| 20260507132704 | 63 | 14 | 4.0 | 9.0 | 0.00 | 0.00 | 0.00 | 48 | 1015.0 |
| 20260507132203 | 63 | 310 | 6.0 | 12.0 | 0.00 | 0.00 | 0.00 | 50 | 1015.0 |
| 20260507131204 | 61 | 296 | 6.0 | 12.0 | 0.00 | 0.00 | 0.00 | 54 | 1015.0 |
| 20260507130704 | 61 | 309 | 3.0 | 10.0 | 0.00 | 0.00 | 0.00 | 52 | 1015.0 |
| 20260507125704 | 61 | 351 | 3.0 | 8.0 | 0.00 | 0.00 | 0.00 | 51 | 1015.0 |
| 20260507125204 | 61 | 19 | 1.0 | 12.0 | 0.00 | 0.00 | 0.00 | 50 | 1015.0 |
| 20260507124704 | 61 | 40 | 5.0 | 9.0 | 0.00 | 0.00 | 0.00 | 50 | 1015.0 |
| 20260507124204 | 61 | 342 | 6.0 | 12.0 | 0.00 | 0.00 | 0.00 | 51 | 1015.0 |
| 20260507123704 | 61 | 0 | 4.0 | 10.0 | 0.00 | 0.00 | 0.00 | 53 | 1014.9 |
| 20260507123203 | 61 | 55 | 5.0 | 9.0 | 0.00 | 0.00 | 0.00 | 52 | 1014.9 |
| 20260507122705 | 61 | 18 | 5.0 | 10.0 | 0.00 | 0.00 | 0.00 | 53 | 1015.0 |
| 20260507121704 | 61 | 32 | 5.0 | 12.0 | 0.00 | 0.00 | 0.00 | 53 | 1015.0 |
| 20260507121204 | 61 | 352 | 4.0 | 8.0 | 0.00 | 0.00 | 0.00 | 54 | 1015.0 |
| 20260507120703 | 61 | 341 | 3.0 | 9.0 | 0.00 | 0.00 | 0.00 | 56 | 1014.9 |
| 20260507115704 | 62 | 346 | 5.0 | 9.0 | 0.00 | 0.00 | 0.00 | 54 | 1014.9 |
| 20260507115204 | 62 | 341 | 4.0 | 10.0 | 0.00 | 0.00 | 0.00 | 55 | 1014.9 |
| 20260507114704 | 63 | 330 | 4.0 | 9.0 | 0.00 | 0.00 | 0.00 | 55 | 1014.9 |
| 20260507114204 | 63 | 336 | 5.0 | 13.0 | 0.00 | 0.00 | 0.00 | 54 | 1015.0 |
| 20260507113204 | 65 | 351 | 5.0 | 10.0 | 0.00 | 0.00 | 0.00 | 48 | 1014.9 |
| 20260507111704 | 65 | 26 | 4.0 | 10.0 | 0.00 | 0.00 | 0.00 | 46 | 1015.0 |
| 20260507111204 | 64 | 71 | 5.0 | 10.0 | 0.00 | 0.00 | 0.00 | 51 | 1014.9 |
| 20260507110704 | 64 | 55 | 6.0 | 9.0 | 0.00 | 0.00 | 0.00 | 52 | 1015.0 |
| 20260507110204 | 63 | 42 | 4.0 | 12.0 | 0.00 | 0.00 | 0.00 | 51 | 1014.9 |
| 20260507105702 | 61 | 51 | 3.0 | 7.0 | 0.00 | 0.00 | 0.00 | 56 | 1015.0 |
| 20260507104702 | 62 | 340 | 3.0 | 12.0 | 0.00 | 0.00 | 0.00 | 60 | 1015.0 |
| 20260507103702 | 60 | 3 | 5.0 | 12.0 | 0.00 | 0.00 | 0.00 | 64 | 1015.0 |
| 20260507103202 | 59 | 309 | 2.0 | 7.0 | 0.00 | 0.00 | 0.00 | 64 | 1015.0 |
| 20260507102702 | 59 | 338 | 3.0 | 8.0 | 0.00 | 0.00 | 0.00 | 64 | 1015.0 |
| 20260507102203 | 59 | 345 | 3.0 | 6.0 | 0.00 | 0.00 | 0.00 | 64 | 1015.0 |
| 20260507101702 | 59 | 1 | 3.0 | 5.0 | 0.00 | 0.00 | 0.00 | 64 | 1015.0 |
| 20260507101203 | 60 | 40 | 2.0 | 6.0 | 0.00 | 0.00 | 0.00 | 64 | 1014.9 |
| 20260507100703 | 60 | 61 | 2.0 | 8.0 | 0.00 | 0.00 | 0.00 | 65 | 1015.0 |
| 20260507100202 | 61 | 325 | 6.0 | 12.0 | 0.00 | 0.00 | 0.00 | 62 | 1015.0 |
| 20260507094702 | 59 | 21 | 4.0 | 8.0 | 0.00 | 0.00 | 0.00 | 67 | 1014.8 |
| 20260507093703 | 59 | 39 | 3.0 | 8.0 | 0.00 | 0.00 | 0.00 | 67 | 1014.8 |
| 20260507093202 | 59 | 23 | 5.0 | 10.0 | 0.00 | 0.00 | 0.00 | 68 | 1014.9 |
| 20260507092702 | 58 | 47 | 4.0 | 9.0 | 0.00 | 0.00 | 0.00 | 71 | 1014.8 |
| 20260507092203 | 57 | 33 | 2.0 | 6.0 | 0.00 | 0.00 | 0.00 | 72 | 1014.8 |
| 20260507091203 | 58 | 0 | 2.0 | 5.0 | 0.00 | 0.00 | 0.00 | 72 | 1014.7 |
| 20260507090703 | 58 | 35 | 3.0 | 9.0 | 0.00 | 0.00 | 0.00 | 72 | 1014.7 |
| 20260507090203 | 58 | 328 | 6.0 | 12.0 | 0.00 | 0.00 | 0.00 | 74 | 1014.7 |
| 20260507085202 | 58 | 351 | 3.0 | 9.0 | 0.00 | 0.00 | 0.00 | 72 | 1014.7 |
| 20260507084702 | 58 | 348 | 6.0 | 10.0 | 0.00 | 0.00 | 0.00 | 73 | 1014.7 |
| 20260507083203 | 57 | 57 | 3.0 | 6.0 | 0.00 | 0.00 | 0.00 | 76 | 1014.6 |
| 20260507082203 | 57 | 15 | 3.0 | 8.0 | 0.00 | 0.00 | 0.00 | 76 | 1014.6 |
| 20260507081703 | 57 | 40 | 5.0 | 12.0 | 0.00 | 0.00 | 0.00 | 78 | 1014.5 |
| 20260507081203 | 56 | 11 | 3.0 | 12.0 | 0.00 | 0.00 | 0.00 | 79 | 1014.5 |
| 20260507080703 | 56 | 60 | 5.0 | 10.0 | 0.00 | 0.00 | 0.00 | 80 | 1014.4 |
| 20260507075702 | 55 | 59 | 5.0 | 9.0 | 0.00 | 0.00 | 0.00 | 82 | 1014.4 |
| 20260507075203 | 54 | 85 | 5.0 | 8.0 | 0.00 | 0.00 | 0.00 | 82 | 1014.3 |
| 20260507074702 | 54 | 47 | 5.0 | 12.0 | 0.00 | 0.00 | 0.00 | 83 | 1014.2 |
| 20260507074203 | 53 | 71 | 2.0 | 6.0 | 0.00 | 0.00 | 0.00 | 84 | 1014.2 |
| 20260507073702 | 53 | 45 | 3.0 | 8.0 | 0.00 | 0.00 | 0.00 | 85 | 1014.2 |
| 20260507073203 | 53 | 329 | 2.0 | 12.0 | 0.00 | 0.00 | 0.00 | 85 | 1014.2 |
| 20260507072703 | 52 | 53 | 3.0 | 7.0 | 0.00 | 0.00 | 0.00 | 86 | 1014.2 |
| 20260507072202 | 52 | 19 | 3.0 | 7.0 | 0.00 | 0.00 | 0.00 | 86 | 1014.1 |
| 20260507071703 | 52 | 62 | 3.0 | 8.0 | 0.00 | 0.00 | 0.00 | 87 | 1014.1 |
| 20260507070703 | 51 | 20 | 2.0 | 8.0 | 0.00 | 0.00 | 0.00 | 88 | 1014.2 |
| 20260507070204 | 51 | 347 | 3.0 | 8.0 | 0.00 | 0.00 | 0.00 | 88 | 1014.1 |
| 20260507065703 | 50 | 358 | 5.0 | 10.0 | 0.00 | 0.00 | 0.00 | 89 | 1014.2 |
| 20260507065203 | 50 | 16 | 4.0 | 9.0 | 0.00 | 0.00 | 0.00 | 89 | 1014.2 |
| 20260507064703 | 50 | 24 | 4.0 | 9.0 | 0.00 | 0.00 | 0.00 | 90 | 1014.2 |
| 20260507064204 | 49 | 9 | 3.0 | 8.0 | 0.00 | 0.00 | 0.00 | 91 | 1014.1 |
| 20260507063703 | 49 | 6 | 3.0 | 9.0 | 0.00 | 0.00 | 0.00 | 91 | 1014.1 |
| 20260507063203 | 49 | 348 | 2.0 | 8.0 | 0.00 | 0.00 | 0.00 | 91 | 1014.1 |
| 20260507061703 | 47 | 329 | 2.0 | 6.0 | 0.00 | 0.00 | 0.00 | 92 | 1013.9 |
| 20260507060703 | 47 | 0 | 4.0 | 9.0 | 0.00 | 0.00 | 0.00 | 92 | 1013.8 |
| 20260507060203 | 46 | 337 | 5.0 | 9.0 | 0.00 | 0.00 | 0.00 | 92 | 1013.8 |
| 20260507055704 | 46 | 334 | 3.0 | 8.0 | 0.00 | 0.00 | 0.00 | 92 | 1013.7 |
| 20260507055203 | 46 | 344 | 4.0 | 9.0 | 0.00 | 0.00 | 0.00 | 92 | 1013.7 |
| 20260507054704 | 45 | 340 | 3.0 | 9.0 | 0.00 | 0.00 | 0.00 | 92 | 1013.7 |
| 20260507054204 | 45 | 343 | 3.0 | 6.0 | 0.00 | 0.00 | 0.00 | 92 | 1013.7 |
| 20260507053703 | 44 | 348 | 3.0 | 6.0 | 0.00 | 0.00 | 0.00 | 92 | 1013.6 |
| 20260507053203 | 44 | 324 | 3.0 | 5.0 | 0.00 | 0.00 | 0.00 | 92 | 1013.6 |
| 20260507052703 | 43 | 323 | 1.0 | 3.0 | 0.00 | 0.00 | 0.00 | 92 | 1013.6 |
| 20260507052203 | 43 | 295 | 2.0 | 6.0 | 0.00 | 0.00 | 0.00 | 92 | 1013.5 |
| 20260507051703 | 43 | 294 | 1.0 | 5.0 | 0.00 | 0.00 | 0.00 | 92 | 1013.5 |
| 20260507050203 | 42 | 319 | 1.0 | 3.0 | 0.00 | 0.00 | 0.00 | 91 | 1013.5 |
| 20260507045703 | 41 | 321 | 1.0 | 2.0 | 0.00 | 0.00 | 0.00 | 91 | 1013.4 |
| 20260507045204 | 41 | 299 | 1.0 | 3.0 | 0.00 | 0.00 | 0.00 | 91 | 1013.4 |
| 20260507044704 | 41 | 308 | 0.0 | 2.0 | 0.00 | 0.00 | 0.00 | 91 | 1013.3 |
| 20260507044203 | 41 | 324 | 1.0 | 2.0 | 0.00 | 0.00 | 0.00 | 91 | 1013.3 |
| 20260507043705 | 41 | 306 | 1.0 | 2.0 | 0.00 | 0.00 | 0.00 | 91 | 1013.3 |
| 20260507043204 | 41 | 313 | 1.0 | 2.0 | 0.00 | 0.00 | 0.00 | 90 | 1013.3 |
| 20260507042704 | 41 | 317 | 1.0 | 2.0 | 0.00 | 0.00 | 0.00 | 90 | 1013.2 |
| 20260507042203 | 40 | 298 | 0.0 | 3.0 | 0.00 | 0.00 | 0.00 | 90 | 1013.2 |
| 20260507041703 | 41 | 304 | 0.0 | 1.0 | 0.00 | 0.00 | 0.00 | 90 | 1013.1 |
| 20260507041204 | 41 | 303 | 0.0 | 2.0 | 0.00 | 0.00 | 0.00 | 90 | 1013.0 |
| 20260507040704 | 41 | 321 | 0.0 | 0.0 | 0.00 | 0.00 | 0.00 | 90 | 1013.0 |
| 20260507035204 | 41 | 308 | 0.0 | 0.0 | 0.00 | 0.00 | 0.00 | 90 | 1012.8 |
| 20260507034204 | 41 | 308 | 0.0 | 2.0 | 0.00 | 0.00 | 0.00 | 90 | 1012.8 |
| 20260507033704 | 41 | 298 | 0.0 | 3.0 | 0.00 | 0.00 | 0.00 | 90 | 1012.8 |
| 20260507033204 | 41 | 319 | 1.0 | 2.0 | 0.00 | 0.00 | 0.00 | 90 | 1012.7 |
| 20260507032704 | 41 | 304 | 0.0 | 2.0 | 0.00 | 0.00 | 0.00 | 90 | 1012.7 |
| 20260507031204 | 42 | 308 | 0.0 | 2.0 | 0.00 | 0.00 | 0.00 | 90 | 1012.6 |
| 20260507030703 | 42 | 320 | 1.0 | 3.0 | 0.00 | 0.00 | 0.00 | 90 | 1012.6 |
| 20260507030204 | 42 | 344 | 1.0 | 3.0 | 0.00 | 0.00 | 0.00 | 90 | 1012.6 |
| 20260507025704 | 42 | 323 | 1.0 | 3.0 | 0.00 | 0.00 | 0.00 | 90 | 1012.6 |
| 20260507025204 | 42 | 302 | 1.0 | 2.0 | 0.00 | 0.00 | 0.00 | 90 | 1012.6 |
| 20260507024705 | 42 | 318 | 1.0 | 2.0 | 0.00 | 0.00 | 0.00 | 90 | 1012.5 |
| 20260507024204 | 42 | 311 | 1.0 | 2.0 | 0.00 | 0.00 | 0.00 | 90 | 1012.5 |
| 20260507023704 | 42 | 312 | 1.0 | 2.0 | 0.00 | 0.00 | 0.00 | 90 | 1012.5 |
| 20260507023204 | 42 | 308 | 1.0 | 3.0 | 0.00 | 0.00 | 0.00 | 90 | 1012.5 |
| 20260507022704 | 42 | 313 | 0.0 | 2.0 | 0.00 | 0.00 | 0.00 | 90 | 1012.5 |
| 20260507021704 | 42 | 317 | 1.0 | 3.0 | 0.00 | 0.00 | 0.00 | 90 | 1012.4 |
| 20260507021203 | 42 | 324 | 1.0 | 3.0 | 0.00 | 0.00 | 0.00 | 90 | 1012.4 |
| 20260507020704 | 42 | 313 | 1.0 | 3.0 | 0.00 | 0.00 | 0.00 | 90 | 1012.3 |
| 20260507020204 | 42 | 294 | 1.0 | 3.0 | 0.00 | 0.00 | 0.00 | 90 | 1012.3 |
| 20260507015704 | 42 | 309 | 1.0 | 3.0 | 0.00 | 0.00 | 0.00 | 90 | 1012.2 |
| 20260507015204 | 42 | 307 | 2.0 | 3.0 | 0.00 | 0.00 | 0.00 | 90 | 1012.2 |
| 20260507014703 | 42 | 312 | 1.0 | 3.0 | 0.00 | 0.00 | 0.00 | 90 | 1012.1 |
| 20260507014205 | 42 | 304 | 1.0 | 3.0 | 0.00 | 0.00 | 0.00 | 90 | 1012.1 |
| 20260507013704 | 42 | 322 | 1.0 | 3.0 | 0.00 | 0.00 | 0.00 | 90 | 1012.2 |
| 20260507012704 | 43 | 336 | 1.0 | 3.0 | 0.00 | 0.00 | 0.00 | 90 | 1012.2 |
| 20260507012204 | 43 | 303 | 1.0 | 3.0 | 0.00 | 0.00 | 0.00 | 90 | 1012.2 |
| 20260507010703 | 43 | 305 | 1.0 | 3.0 | 0.00 | 0.00 | 0.00 | 89 | 1012.2 |
| 20260507010204 | 43 | 321 | 2.0 | 3.0 | 0.00 | 0.00 | 0.00 | 90 | 1012.2 |
| 20260507005704 | 43 | 299 | 1.0 | 6.0 | 0.00 | 0.00 | 0.00 | 90 | 1012.2 |
| 20260507005204 | 43 | 299 | 1.0 | 3.0 | 0.00 | 0.00 | 0.00 | 89 | 1012.1 |
| 20260507004704 | 43 | 292 | 1.0 | 3.0 | 0.00 | 0.00 | 0.00 | 89 | 1012.1 |
| 20260507003704 | 43 | 319 | 1.0 | 3.0 | 0.00 | 0.00 | 0.00 | 89 | 1012.0 |
| 20260507003204 | 43 | 321 | 0.0 | 3.0 | 0.00 | 0.00 | 0.00 | 89 | 1012.0 |
| 20260507002204 | 43 | 296 | 2.0 | 3.0 | 0.00 | 0.00 | 0.00 | 89 | 1012.0 |
| 20260507001204 | 43 | 293 | 1.0 | 3.0 | 0.00 | 0.00 | 0.00 | 89 | 1012.0 |
| 20260507000704 | 43 | 296 | 1.0 | 3.0 | 0.00 | 0.00 | 0.00 | 89 | 1012.0 |
| 20260507000205 | 43 | 294 | 1.0 | 2.0 | 0.00 | 0.00 | 0.00 | 88 | 1012.1 |
| 20260506235704 | 43 | 288 | 1.0 | 3.0 | 0.00 | 0.00 | 0.00 | 89 | 1012.1 |
| 20260506234704 | 43 | 293 | 0.0 | 1.0 | 0.00 | 0.00 | 0.00 | 88 | 1012.1 |
| 20260506234204 | 43 | 293 | 1.0 | 3.0 | 0.00 | 0.00 | 0.00 | 88 | 1012.1 |
| 20260506233704 | 44 | 306 | 1.0 | 2.0 | 0.00 | 0.00 | 0.00 | 88 | 1012.0 |
| 20260506233204 | 44 | 298 | 1.0 | 3.0 | 0.00 | 0.00 | 0.00 | 88 | 1012.1 |
| 20260506232704 | 44 | 309 | 1.0 | 2.0 | 0.00 | 0.00 | 0.00 | 88 | 1012.0 |